[[{"header":{"parameterUnit":"m.s-1","parameterCategory":1,"la1":30.2991,"la2":30.254,"lo1":-89.0895,"lo2":-89.0444,"dy":0.0017,"dx":0.0017,"nx":28,"ny":28,"refTime":"2023-11-05T09:00:00:Z","depth":0,"parameterNumber":2,"parameterNumberName":"U-component_of_WINDS"},"data":[0,0,0,0,0,0,0,0,0,0,0,0,0,0,0,0,0,0,0,0,0,0,0,0,0,0,0,0,0,0,0,0,0,0,0,0,0,0,0,0,0,0,0,0,0,0,0,0,0,0,0,0,0,0,0,0,0,0,-0.2652,-0.2652,0,-0.2628,-0.2628,-0.2627,-0.2606,-0.2606,-0.2605,-0.2605,-0.2579,-0.2579,-0.2578,0,0,0,0,0,0,0,0,0,0,0,0,0,-0.2679,-0.2679,-0.2652,-0.2652,-0.2651,-0.2628,-0.2628,-0.2627,-0.2606,-0.2606,-0.2605,-0.2605,-0.2579,-0.2579,-0.2578,0,0,0,0,0,0,0,0,0,0,0,0,0,-0.2662,-0.2679,-0.2652,-0.2638,-0.2636,-0.2628,-0.2628,-0.2627,-0.2606,-0.2606,-0.2605,-0.2605,-0.2579,-0.2579,-0.2578,-0.2581,0,0,-0.2576,-0.2576,0,0,0,0,0,0,0,0,-0.2663,-0.2661,-0.264,-0.2639,-0.2637,-0.2619,-0.2628,-0.2612,-0.2606,-0.2617,-0.2605,-0.2605,-0.2593,-0.2591,-0.2587,-0.258,-0.2579,-0.2576,-0.2576,-0.2575,-0.2575,0,0,0,0,0,0,0,-0.2665,-0.2662,-0.2642,-0.264,-0.2638,-0.2633,-0.263,-0.2625,-0.2607,-0.2616,-0.2615,-0.2612,-0.2592,-0.2588,-0.2586,-0.2579,-0.2576,-0.2575,-0.2575,-0.2575,-0.2574,-0.2574,0,0,0,0,0,0,-0.2668,-0.2663,-0.2643,-0.2642,-0.265,-0.2633,-0.2629,-0.2626,-0.2607,-0.2604,-0.2613,-0.2611,-0.2589,-0.2587,-0.2585,-0.2589,-0.2575,-0.2575,-0.2574,-0.2574,-0.2574,-0.2575,0,0,0,0,0,0,-0.2669,-0.2666,-0.2644,-0.2652,-0.2649,-0.2632,-0.2628,-0.2625,-0.2621,-0.2605,-0.2601,-0.2612,-0.2589,-0.2586,-0.2583,-0.2588,-0.2574,-0.2574,-0.2573,-0.2574,-0.2574,-0.2595,0,0,0,0,0,0,-0.267,-0.2667,-0.2668,-0.2652,-0.2649,-0.2642,-0.2629,-0.2625,-0.262,-0.2618,-0.2603,-0.26,-0.2588,-0.2584,-0.2582,-0.2586,-0.2573,-0.2573,-0.2574,-0.2574,-0.2594,-0.2596,-0.2598,0,0,0,0,0,-0.2671,-0.2674,-0.2668,-0.2666,-0.265,-0.2642,-0.264,-0.2627,-0.2621,-0.2622,-0.2611,-0.2601,-0.2587,-0.2584,-0.2582,-0.2586,-0.2572,-0.2573,-0.2574,-0.2593,-0.2596,-0.2598,0,0,0,0,0,0,-0.269,-0.2672,-0.2665,-0.2663,-0.2655,-0.2639,-0.264,-0.263,-0.2623,-0.2621,-0.2605,-0.2602,-0.26,-0.2592,-0.2589,-0.2588,-0.2578,-0.2579,-0.2593,-0.2596,-0.2598,-0.26,-0.2573,0,0,0,0,0,-0.2694,-0.269,-0.2674,-0.2675,-0.2671,-0.2656,-0.2652,-0.2643,-0.2633,-0.2629,-0.2618,-0.2609,-0.2603,-0.2599,-0.2592,-0.2593,-0.2589,-0.2594,-0.2597,-0.2599,-0.2599,-0.26,-0.2602,-0.2578,-0.2578,-0.2578,0,0,-0.2703,-0.2692,-0.269,-0.2678,-0.267,-0.2667,-0.2653,-0.2649,-0.2646,-0.2629,-0.2625,-0.2617,-0.2605,-0.2604,-0.2603,-0.2597,-0.2605,-0.26,-0.2601,-0.2601,-0.2601,-0.2603,-0.2605,-0.2578,-0.2578,-0.2578,0,0,-0.2716,-0.2708,-0.2707,-0.27,-0.2689,-0.2679,-0.2679,-0.2665,-0.2659,-0.2655,-0.2642,-0.2638,-0.2628,-0.262,-0.2615,-0.2627,-0.2618,-0.2626,-0.2637,-0.2638,-0.264,-0.2642,-0.2646,-0.2648,-0.2626,-0.2626,-0.2626,0,-0.2728,-0.2722,-0.2708,-0.2706,-0.2701,-0.2686,-0.2686,-0.2679,-0.2666,-0.2663,-0.2657,-0.2645,-0.2636,-0.2633,-0.2636,-0.2632,-0.2632,-0.2627,-0.2641,-0.2642,-0.2644,-0.2648,-0.265,-0.2627,-0.2627,-0.2627,-0.2627,0,-0.2737,-0.2733,-0.2734,-0.2723,-0.2718,-0.2717,-0.2703,-0.27,-0.2692,-0.2683,-0.268,-0.2669,-0.266,-0.2659,-0.265,-0.2655,-0.2652,-0.2644,-0.2634,-0.2647,-0.2651,-0.2653,-0.2629,-0.2629,-0.2628,-0.2628,0,0,-0.2761,-0.2743,-0.2744,-0.2739,-0.2726,-0.2723,-0.2721,-0.2713,-0.2711,-0.2703,-0.2701,-0.2693,-0.2686,-0.268,-0.267,-0.2671,-0.2682,-0.2663,-0.2662,-0.2667,-0.2688,-0.2695,-0.2697,-0.2676,-0.2676,-0.2676,-0.2689,0,-0.2773,-0.2769,-0.2757,-0.2757,-0.2754,-0.274,-0.2738,-0.273,-0.2722,-0.2718,-0.2709,-0.2704,-0.2694,-0.2691,-0.2691,-0.2681,-0.2686,-0.268,-0.2674,-0.2674,-0.2678,-0.2699,-0.2705,-0.2718,-0.2691,-0.2691,-0.2691,0,-0.2785,-0.2779,-0.2779,-0.2767,-0.2765,-0.2764,-0.2756,-0.2752,-0.2743,-0.2737,-0.2732,-0.2721,-0.2719,-0.271,-0.2706,-0.2702,-0.2699,-0.2694,-0.2695,-0.2694,-0.2684,-0.2699,-0.2722,-0.2724,-0.2693,-0.2693,-0.2693,0,-0.2804,-0.2795,-0.2794,-0.279,-0.2776,-0.2776,-0.277,-0.276,-0.2756,-0.275,-0.2747,-0.274,-0.2736,-0.2731,-0.272,-0.2714,-0.2718,-0.2708,-0.2713,-0.2714,-0.2715,-0.2715,-0.2738,-0.2713,-0.2713,-0.2713,-0.2712,0,-0.2818,-0.2818,-0.2802,-0.2801,-0.2802,-0.2789,-0.2789,-0.2782,-0.2774,-0.2772,-0.2759,-0.2757,-0.2742,-0.2738,-0.2729,-0.2728,-0.2726,-0.2722,-0.2719,-0.2723,-0.2724,-0.2721,-0.272,-0.2713,-0.2713,-0.2713,-0.2713,0,-0.2838,-0.2827,-0.2825,-0.2812,-0.2809,-0.281,-0.2799,-0.2798,-0.279,-0.2787,-0.2786,-0.2773,-0.2768,-0.2756,-0.2748,-0.2742,-0.2744,-0.2739,-0.2747,-0.2746,-0.2752,-0.2752,-0.2775,-0.2777,-0.275,-0.275,-0.2751,0,-0.2848,-0.2848,-0.2836,-0.2834,-0.2829,-0.2825,-0.2822,-0.2809,-0.2806,-0.2796,-0.2797,-0.2791,-0.2786,-0.278,-0.2769,-0.2763,-0.2759,-0.2767,-0.2758,-0.2762,-0.2759,-0.276,-0.276,-0.2769,-0.2769,-0.277,-0.277,0,-0.2866,-0.2861,-0.2857,-0.2851,-0.2848,-0.2843,-0.2836,-0.2835,-0.2821,-0.2819,-0.2814,-0.2811,-0.2803,-0.2798,-0.2791,-0.2785,-0.2775,-0.2773,-0.2774,-0.2778,-0.2783,-0.2781,-0.2753,-0.2773,-0.2772,-0.2772,-0.2772,-0.2772,-0.2882,-0.2882,-0.2874,-0.287,-0.2864,-0.2859,-0.2858,-0.285,-0.2846,-0.2839,-0.2832,-0.2829,-0.282,-0.281,-0.2805,-0.2802,-0.2797,-0.2798,-0.2799,-0.2799,-0.2801,-0.2783,-0.28,-0.28,-0.28,-0.28,-0.28,0,-0.29,-0.2895,-0.2891,-0.2884,-0.2881,-0.2873,-0.2866,-0.2864,-0.2861,-0.2855,-0.285,-0.2846,-0.2841,-0.2831,-0.2826,-0.2825,-0.2821,-0.2824,-0.2824,-0.2823,-0.2806,-0.2806,-0.2828,-0.2828,-0.2828,-0.2828,-0.2828,-0.2828,-0.291,-0.291,-0.2904,-0.2901,-0.2895,-0.2892,-0.2889,-0.2884,-0.2879,-0.2875,-0.2871,-0.2865,-0.2857,-0.2851,-0.2847,-0.2844,-0.2843,-0.2848,-0.2843,-0.2827,-0.2824,-0.2822,-0.2822,-0.2847,-0.2847,-0.2861,-0.2861,-0.2862]},{"header":{"parameterUnit":"m.s-1","parameterCategory":1,"la1":30.2991,"la2":30.254,"lo1":-89.0895,"lo2":-89.0444,"dy":0.0017,"dx":0.0017,"nx":28,"ny":28,"refTime":"2023-11-05T09:00:00:Z","depth":0,"parameterNumber":3,"parameterNumberName":"V-component_of_WINDS"},"data":[0,0,0,0,0,0,0,0,0,0,0,0,0,0,0,0,0,0,0,0,0,0,0,0,0,0,0,0,0,0,0,0,0,0,0,0,0,0,0,0,0,0,0,0,0,0,0,0,0,0,0,0,0,0,0,0,0,0,-0.3299,-0.3299,0,-0.3342,-0.3343,-0.3343,-0.3379,-0.338,-0.338,-0.338,-0.3424,-0.3425,-0.3426,0,0,0,0,0,0,0,0,0,0,0,0,0,-0.3247,-0.3248,-0.3298,-0.3299,-0.33,-0.3342,-0.3343,-0.3343,-0.3379,-0.338,-0.338,-0.3381,-0.3424,-0.3425,-0.3426,0,0,0,0,0,0,0,0,0,0,0,0,0,-0.3278,-0.3248,-0.3298,-0.3323,-0.3325,-0.3342,-0.3343,-0.3344,-0.3379,-0.338,-0.338,-0.3381,-0.3424,-0.3425,-0.3426,-0.3422,0,0,-0.343,-0.343,0,0,0,0,0,0,0,0,-0.3276,-0.328,-0.3318,-0.3321,-0.3324,-0.3356,-0.3341,-0.337,-0.3379,-0.3359,-0.338,-0.3381,-0.3401,-0.3404,-0.3411,-0.3424,-0.3426,-0.343,-0.3431,-0.3431,-0.3431,0,0,0,0,0,0,0,-0.3274,-0.3278,-0.3316,-0.3319,-0.3322,-0.3332,-0.3337,-0.3346,-0.3376,-0.336,-0.3363,-0.3368,-0.3403,-0.341,-0.3412,-0.3427,-0.343,-0.3431,-0.3432,-0.3432,-0.3442,-0.3442,0,0,0,0,0,0,-0.3268,-0.3276,-0.3314,-0.3317,-0.3301,-0.3332,-0.3338,-0.3345,-0.3376,-0.3381,-0.3367,-0.3369,-0.3407,-0.3411,-0.3414,-0.3414,-0.3431,-0.3432,-0.3433,-0.3443,-0.3442,-0.3442,0,0,0,0,0,0,-0.3267,-0.3271,-0.3313,-0.3297,-0.3303,-0.3332,-0.334,-0.3346,-0.3353,-0.3381,-0.3387,-0.3369,-0.3408,-0.3412,-0.3421,-0.3416,-0.3433,-0.3434,-0.3443,-0.3443,-0.3442,-0.3412,0,0,0,0,0,0,-0.3265,-0.327,-0.3269,-0.3297,-0.3304,-0.3318,-0.334,-0.3346,-0.3355,-0.3358,-0.3384,-0.3389,-0.3409,-0.3419,-0.3422,-0.3418,-0.3435,-0.3444,-0.3443,-0.3442,-0.3414,-0.3411,-0.3408,0,0,0,0,0,-0.3263,-0.3258,-0.3268,-0.3273,-0.3303,-0.3318,-0.3322,-0.3344,-0.3354,-0.3354,-0.3372,-0.3389,-0.3416,-0.3419,-0.3423,-0.3419,-0.3444,-0.3443,-0.3442,-0.3415,-0.3411,-0.3408,0,0,0,0,0,0,-0.3227,-0.3262,-0.3274,-0.3278,-0.3295,-0.3324,-0.3323,-0.3339,-0.3353,-0.3356,-0.3383,-0.3389,-0.3395,-0.3408,-0.3411,-0.3419,-0.3432,-0.3432,-0.341,-0.3407,-0.3404,-0.3401,-0.3436,0,0,0,0,0,-0.322,-0.3229,-0.3259,-0.3259,-0.3267,-0.3294,-0.3301,-0.3317,-0.3336,-0.3343,-0.3362,-0.338,-0.3393,-0.34,-0.3413,-0.3416,-0.3423,-0.3415,-0.3412,-0.341,-0.341,-0.3415,-0.3412,-0.3438,-0.3438,-0.3438,0,0,-0.3204,-0.3224,-0.3228,-0.3252,-0.3267,-0.3278,-0.3299,-0.3308,-0.3316,-0.3344,-0.3354,-0.3369,-0.339,-0.3397,-0.34,-0.3408,-0.3404,-0.3408,-0.3406,-0.3407,-0.3413,-0.3411,-0.3408,-0.3438,-0.3438,-0.3438,0,0,-0.3182,-0.3197,-0.32,-0.3216,-0.3239,-0.3257,-0.3258,-0.3285,-0.3296,-0.3307,-0.3329,-0.3339,-0.3359,-0.3375,-0.3385,-0.3371,-0.3387,-0.3374,-0.3359,-0.3364,-0.3362,-0.336,-0.3357,-0.3356,-0.3374,-0.3374,-0.3374,0,-0.316,-0.3175,-0.32,-0.3209,-0.3219,-0.3246,-0.3251,-0.3264,-0.329,-0.3297,-0.3305,-0.3334,-0.335,-0.3361,-0.3358,-0.3365,-0.3368,-0.3372,-0.336,-0.3359,-0.3358,-0.3355,-0.3354,-0.3372,-0.3372,-0.3373,-0.3373,0,-0.3148,-0.3159,-0.3159,-0.3185,-0.3196,-0.3202,-0.3228,-0.3236,-0.3252,-0.3269,-0.3281,-0.3302,-0.3321,-0.3324,-0.3339,-0.3339,-0.3343,-0.3355,-0.3369,-0.3353,-0.3351,-0.3351,-0.337,-0.3371,-0.3371,-0.3371,0,0,-0.3104,-0.3145,-0.3145,-0.3158,-0.3186,-0.3195,-0.3204,-0.3223,-0.3231,-0.3248,-0.3256,-0.3275,-0.3287,-0.3299,-0.3316,-0.3319,-0.331,-0.3331,-0.3332,-0.3328,-0.3314,-0.3305,-0.3304,-0.3321,-0.332,-0.332,-0.3312,0,-0.3088,-0.3105,-0.3128,-0.3137,-0.3149,-0.3176,-0.3183,-0.3202,-0.3219,-0.3231,-0.325,-0.3263,-0.3277,-0.3285,-0.329,-0.331,-0.3308,-0.3311,-0.333,-0.3331,-0.3325,-0.3302,-0.3293,-0.3285,-0.3312,-0.3312,-0.3311,0,-0.3071,-0.3089,-0.3099,-0.3129,-0.3135,-0.3141,-0.3162,-0.3174,-0.3196,-0.3208,-0.3222,-0.3241,-0.3253,-0.3265,-0.3282,-0.3283,-0.3293,-0.3304,-0.3304,-0.3308,-0.3321,-0.3307,-0.3282,-0.3282,-0.331,-0.331,-0.331,0,-0.3041,-0.3067,-0.3077,-0.3087,-0.3122,-0.3126,-0.3141,-0.3164,-0.3175,-0.3193,-0.3201,-0.3219,-0.323,-0.3245,-0.3269,-0.3275,-0.3284,-0.3297,-0.3295,-0.3295,-0.3297,-0.3297,-0.3275,-0.33,-0.33,-0.33,-0.33,0,-0.3021,-0.3027,-0.3065,-0.3071,-0.3079,-0.3106,-0.3114,-0.3131,-0.3151,-0.3163,-0.3186,-0.3196,-0.3226,-0.324,-0.3258,-0.3271,-0.3275,-0.3286,-0.3291,-0.3285,-0.3283,-0.3292,-0.3294,-0.33,-0.33,-0.33,-0.33,0,-0.2989,-0.3014,-0.3028,-0.306,-0.3068,-0.3073,-0.3101,-0.3109,-0.3128,-0.3141,-0.3146,-0.3176,-0.3193,-0.3218,-0.3243,-0.3256,-0.3266,-0.3273,-0.3259,-0.3262,-0.326,-0.326,-0.3244,-0.3244,-0.3267,-0.3267,-0.3267,0,-0.2976,-0.2982,-0.3015,-0.3024,-0.3039,-0.3053,-0.3065,-0.3092,-0.3104,-0.3131,-0.3136,-0.3155,-0.3173,-0.32,-0.3223,-0.3243,-0.3252,-0.3245,-0.3255,-0.3249,-0.3254,-0.3254,-0.3256,-0.3243,-0.3242,-0.3242,-0.3242,0,-0.2951,-0.2963,-0.298,-0.3001,-0.3015,-0.3033,-0.3052,-0.3058,-0.3089,-0.3101,-0.312,-0.3133,-0.316,-0.3179,-0.3203,-0.3218,-0.3236,-0.3238,-0.3239,-0.3233,-0.3226,-0.3232,-0.3254,-0.3239,-0.3239,-0.3239,-0.3239,-0.324,-0.2929,-0.2937,-0.2962,-0.298,-0.2997,-0.3015,-0.3025,-0.3045,-0.3062,-0.3086,-0.3101,-0.3119,-0.3143,-0.3176,-0.3191,-0.3206,-0.3213,-0.3214,-0.3215,-0.3215,-0.3214,-0.3222,-0.3211,-0.3211,-0.3211,-0.3211,-0.3211,0,-0.2907,-0.2925,-0.2942,-0.2968,-0.2983,-0.2998,-0.302,-0.3032,-0.3048,-0.3069,-0.3086,-0.3108,-0.3128,-0.3154,-0.3176,-0.3183,-0.3192,-0.3188,-0.3188,-0.3192,-0.3205,-0.3203,-0.3181,-0.3181,-0.3181,-0.3181,-0.3181,-0.3181,-0.2898,-0.2912,-0.2927,-0.2951,-0.2968,-0.2987,-0.2999,-0.3016,-0.3033,-0.3057,-0.3074,-0.3091,-0.3115,-0.3138,-0.3158,-0.3165,-0.3172,-0.3166,-0.3176,-0.3188,-0.3191,-0.3193,-0.3192,-0.3167,-0.3167,-0.3162,-0.3162,-0.3162]}]]